EW5196 Weather Reports


Display with metric or nautical units.
time (UTC)temp
F
wind
direction
speed
MPH
gust
MPH
rain 1hr
in
rain 24hr
in
rain mn
in
humidity
%
barometer
mb
20260510213548 84 222 2.0 2.0 0.00 0.00 0.00 30 1013.8
20260510213043 84 257 0.0 3.0 0.00 0.00 0.00 32 1013.6
20260510212540 85 194 1.0 5.0 0.00 0.00 0.00 31 1013.9
20260510212038 85 160 2.0 2.0 0.00 0.00 0.00 32 1013.5
20260510211534 85 234 0.0 3.0 0.00 0.00 0.00 32 1013.7
20260510211029 85 187 0.0 2.0 0.00 0.00 0.00 30 1013.7
20260510210526 85 185 0.0 3.0 0.00 0.00 0.00 32 1013.6
20260510210020 85 198 0.0 2.0 0.00 0.00 0.00 30 1013.5
20260510205520 85 165 0.0 2.0 0.00 0.00 0.00 28 1013.6
20260510205016 85 231 0.0 2.0 0.00 0.00 0.00 31 1013.4
20260510204512 85 172 0.0 2.0 0.00 0.00 0.00 30 1013.6
20260510204009 85 132 2.0 4.0 0.00 0.00 0.00 30 1013.6
20260510203507 85 200 0.0 3.0 0.00 0.00 0.00 30 1013.7
20260510203001 86 145 2.0 3.0 0.00 0.00 0.00 30 1013.6
20260510202456 86 218 0.0 2.0 0.00 0.00 0.00 29 1013.7
20260510201953 86 215 0.0 3.0 0.00 0.00 0.00 29 1013.7
20260510201451 87 187 2.0 3.0 0.00 0.00 0.00 27 1013.7
20260510200947 88 207 1.0 3.0 0.00 0.00 0.00 27 1013.8
20260510200442 88 174 1.0 3.0 0.00 0.00 0.00 27 1013.8
20260510195935 87 226 2.0 2.0 0.00 0.00 0.00 29 1013.8
20260510195433 87 247 0.0 2.0 0.00 0.00 0.00 28 1013.9
20260510194928 87 218 2.0 4.0 0.00 0.00 0.00 29 1014.1
20260510194425 87 164 2.0 2.0 0.00 0.00 0.00 29 1013.8
20260510193920 86 215 0.0 2.0 0.00 0.00 0.00 30 1014.0
20260510193415 85 220 0.0 6.0 0.00 0.00 0.00 28 1014.1
20260510192906 86 256 1.0 2.0 0.00 0.00 0.00 33 1014.4
20260510192401 85 221 0.0 2.0 0.00 0.00 0.00 34 1014.4
20260510191856 85 247 0.0 2.0 0.00 0.00 0.00 30 1014.4
20260510191353 85 235 0.0 3.0 0.00 0.00 0.00 31 1014.4
20260510190850 87 210 2.0 5.0 0.00 0.00 0.00 27 1014.2
20260510190348 87 216 5.0 5.0 0.00 0.00 0.00 26 1014.4
20260510185844 87 193 1.0 4.0 0.00 0.00 0.00 27 1014.4
20260510185342 87 203 1.0 2.0 0.00 0.00 0.00 26 1014.4
20260510184839 86 205 2.0 2.0 0.00 0.00 0.00 29 1014.7
20260510184336 86 267 2.0 3.0 0.00 0.00 0.00 28 1015.0
20260510183835 86 221 1.0 4.0 0.00 0.00 0.00 30 1014.6
20260510183332 86 207 0.0 3.0 0.00 0.00 0.00 30 1014.7
20260510182827 86 204 1.0 3.0 0.00 0.00 0.00 29 1014.7
20260510182324 86 220 0.0 4.0 0.00 0.00 0.00 31 1014.6
20260510181820 85 209 0.0 1.0 0.00 0.00 0.00 30 1014.8
20260510181318 84 149 0.0 1.0 0.00 0.00 0.00 32 1014.8
20260510180813 84 178 2.0 4.0 0.00 0.00 0.00 31 1014.8
20260510180311 84 132 2.0 2.0 0.00 0.00 0.00 32 1015.0
20260510175807 84 254 4.0 4.0 0.00 0.00 0.00 30 1014.7
20260510175306 83 152 2.0 3.0 0.00 0.00 0.00 31 1014.9
20260510174800 83 193 2.0 3.0 0.00 0.00 0.00 30 1015.0
20260510174257 83 358 0.0 6.0 0.00 0.00 0.00 29 1014.8
20260510173754 83 230 2.0 3.0 0.00 0.00 0.00 30 1015.0
20260510173249 84 213 0.0 2.0 0.00 0.00 0.00 31 1015.1
20260510172745 83 210 0.0 2.0 0.00 0.00 0.00 32 1015.0
20260510172241 83 187 3.0 5.0 0.00 0.00 0.00 32 1015.0
20260510171738 83 251 1.0 3.0 0.00 0.00 0.00 33 1014.9
20260510171236 83 81 0.0 2.0 0.00 0.00 0.00 33 1015.2
20260510170733 83 199 2.0 3.0 0.00 0.00 0.00 31 1015.0
20260510170228 82 150 0.0 3.0 0.00 0.00 0.00 35 1015.5
20260510165724 82 160 0.0 3.0 0.00 0.00 0.00 35 1015.5
20260510165220 82 210 0.0 3.0 0.00 0.00 0.00 33 1015.5
20260510164718 82 199 1.0 5.0 0.00 0.00 0.00 35 1015.6
20260510164216 82 130 0.0 3.0 0.00 0.00 0.00 34 1015.6
20260510163710 82 209 0.0 2.0 0.00 0.00 0.00 36 1015.8
20260510163206 81 248 0.0 2.0 0.00 0.00 0.00 33 1015.6
20260510162706 81 146 2.0 2.0 0.00 0.00 0.00 35 1015.6
20260510162203 81 179 2.0 2.0 0.00 0.00 0.00 36 1015.7
20260510161659 81 144 2.0 3.0 0.00 0.00 0.00 37 1015.5
20260510161155 81 166 2.0 3.0 0.00 0.00 0.00 37 1015.6
20260510160652 80 177 2.0 3.0 0.00 0.00 0.00 38 1015.7
20260510160148 81 156 3.0 3.0 0.00 0.00 0.00 37 1015.9
20260510155644 80 211 2.0 3.0 0.00 0.00 0.00 39 1016.0
20260510155140 79 195 1.0 4.0 0.00 0.00 0.00 39 1015.9
20260510154636 79 210 0.0 3.0 0.00 0.00 0.00 41 1016.0
20260510154132 79 167 3.0 5.0 0.00 0.00 0.00 39 1016.0
20260510153627 79 157 3.0 3.0 0.00 0.00 0.00 39 1016.2
20260510153124 79 170 2.0 3.0 0.00 0.00 0.00 41 1016.4
20260510152620 79 136 1.0 3.0 0.00 0.00 0.00 42 1016.1
20260510152116 78 152 1.0 2.0 0.00 0.00 0.00 42 1015.9
20260510151613 78 151 1.0 3.0 0.00 0.00 0.00 42 1016.1
20260510151111 78 166 2.0 3.0 0.00 0.00 0.00 42 1016.1
20260510150606 78 174 2.0 3.0 0.00 0.00 0.00 43 1016.2
20260510145559 77 154 1.0 4.0 0.00 0.00 0.00 42 1016.2
20260510145055 78 166 1.0 2.0 0.00 0.00 0.00 46 1016.2
20260510144551 77 190 1.0 3.0 0.00 0.00 0.00 44 1016.2
20260510144048 77 170 2.0 2.0 0.00 0.00 0.00 46 1016.1
20260510143543 77 168 2.0 2.0 0.00 0.00 0.00 46 1016.1
20260510143040 76 173 2.0 3.0 0.00 0.00 0.00 46 1016.3
20260510142536 77 180 2.0 2.0 0.00 0.00 0.00 47 1016.0
20260510142033 76 196 1.0 3.0 0.00 0.00 0.00 48 1016.0
20260510141530 74 178 1.0 3.0 0.00 0.00 0.00 50 1016.1
20260510141028 74 142 2.0 4.0 0.00 0.00 0.00 48 1016.1
20260510140524 74 146 2.0 2.0 0.00 0.00 0.00 52 1016.0
20260510140023 73 170 2.0 2.0 0.00 0.00 0.00 53 1016.0
20260510135519 71 197 1.0 3.0 0.00 0.00 0.00 56 1015.9
20260510135015 71 160 2.0 2.0 0.00 0.00 0.00 60 1016.0
20260510134513 70 176 2.0 3.0 0.00 0.00 0.00 61 1015.9
20260510134010 69 143 2.0 3.0 0.00 0.00 0.00 61 1016.1
20260510133505 69 151 2.0 2.0 0.00 0.00 0.00 66 1016.1
20260510133001 68 148 3.0 3.0 0.00 0.00 0.00 66 1016.1
20260510132459 68 157 2.0 3.0 0.00 0.00 0.00 69 1016.0
20260510131955 67 162 2.0 2.0 0.00 0.00 0.00 68 1015.9
20260510131453 67 156 2.0 2.0 0.00 0.00 0.00 71 1016.2
20260510130950 66 148 2.0 2.0 0.00 0.00 0.00 75 1015.9
20260510130446 66 138 2.0 2.0 0.00 0.00 0.00 76 1016.1
20260510125944 65 150 2.0 2.0 0.00 0.00 0.00 79 1015.8
20260510125440 64 142 1.0 2.0 0.00 0.00 0.00 80 1015.7
20260510124937 63 150 2.0 2.0 0.00 0.00 0.00 82 1015.7
20260510124433 63 157 2.0 3.0 0.00 0.00 0.00 85 1015.6
20260510123930 62 146 2.0 2.0 0.00 0.00 0.00 88 1015.7
20260510123425 61 160 1.0 2.0 0.00 0.00 0.00 90 1015.9
20260510122922 60 150 2.0 2.0 0.00 0.00 0.00 93 1015.8
20260510122417 60 156 1.0 2.0 0.00 0.00 0.00 96 1016.1
20260510121913 59 158 2.0 2.0 0.00 0.00 0.00 97 1015.6
20260510121411 58 143 2.0 2.0 0.00 0.00 0.00 98 1015.5
20260510120908 57 149 2.0 2.0 0.00 0.00 0.00 99 1015.3
20260510120405 57 153 2.0 2.0 0.00 0.00 0.00 99 1015.2
20260510115901 56 149 2.0 2.0 0.00 0.00 0.00 99 1015.3
20260510115358 55 156 2.0 2.0 0.00 0.00 0.00 99 1015.0
20260510114854 54 147 1.0 2.0 0.00 0.00 0.00 99 1015.1
20260510114351 54 142 2.0 2.0 0.00 0.00 0.00 99 1014.9
20260510113851 53 158 2.0 2.0 0.00 0.00 0.00 99 1014.9
20260510113347 53 153 2.0 2.0 0.00 0.00 0.00 98 1015.1
20260510112844 52 151 2.0 2.0 0.00 0.00 0.00 98 1015.0
20260510112342 52 144 1.0 2.0 0.00 0.00 0.00 98 1014.7
20260510111837 52 146 2.0 2.0 0.00 0.00 0.00 98 1014.7
20260510111334 51 150 2.0 2.0 0.00 0.00 0.00 98 1014.6
20260510110834 51 149 2.0 3.0 0.00 0.00 0.00 98 1014.6
20260510110332 51 158 2.0 2.0 0.00 0.00 0.00 98 1014.4
20260510105827 51 145 2.0 2.0 0.00 0.00 0.00 98 1014.4
20260510105322 51 154 2.0 2.0 0.00 0.00 0.00 98 1014.4
20260510104819 51 154 2.0 2.0 0.00 0.00 0.00 98 1014.8
20260510104316 51 152 2.0 2.0 0.00 0.00 0.00 98 1014.3
20260510103812 51 148 2.0 3.0 0.00 0.00 0.00 98 1014.4
20260510103309 51 152 2.0 3.0 0.00 0.00 0.00 98 1014.4
20260510102804 51 134 2.0 2.0 0.00 0.00 0.00 97 1014.4
20260510102300 51 153 2.0 3.0 0.00 0.00 0.00 97 1014.3
20260510101757 51 155 2.0 2.0 0.00 0.00 0.00 97 1014.2
20260510101255 51 138 2.0 2.0 0.00 0.00 0.00 97 1014.2
20260510100751 51 154 2.0 3.0 0.00 0.00 0.00 97 1014.2
20260510100249 52 153 2.0 3.0 0.00 0.00 0.00 97 1014.0
20260510095744 52 158 2.0 3.0 0.00 0.00 0.00 97 1013.9
20260510095239 52 160 2.0 2.0 0.00 0.00 0.00 97 1013.8
20260510094738 52 143 2.0 2.0 0.00 0.00 0.00 97 1013.6
20260510094234 52 159 2.0 3.0 0.00 0.00 0.00 97 1014.0
20260510093730 52 154 2.0 3.0 0.00 0.00 0.00 97 1013.8
20260510093228 52 156 2.0 2.0 0.00 0.00 0.00 97 1013.7
20260510092724 52 165 2.0 3.0 0.00 0.00 0.00 97 1013.8
20260510092220 53 152 2.0 3.0 0.00 0.00 0.00 97 1013.7
20260510091715 53 147 2.0 2.0 0.00 0.00 0.00 96 1013.7
20260510091212 53 149 2.0 2.0 0.00 0.00 0.00 96 1013.7
20260510090709 53 148 2.0 2.0 0.00 0.00 0.00 96 1013.4
20260510090206 53 142 2.0 2.0 0.00 0.00 0.00 97 1013.4
20260510085701 54 160 2.0 3.0 0.00 0.00 0.00 96 1013.4
20260510085156 54 166 3.0 3.0 0.00 0.00 0.00 96 1013.3
20260510084652 54 156 2.0 3.0 0.00 0.00 0.00 96 1013.3
20260510084149 54 152 2.0 2.0 0.00 0.00 0.00 96 1013.3
20260510083646 54 155 2.0 2.0 0.00 0.00 0.00 96 1013.2
20260510083143 54 154 2.0 2.0 0.00 0.00 0.00 96 1013.2
20260510082639 55 144 2.0 3.0 0.00 0.00 0.00 96 1013.1
20260510082135 55 140 2.0 2.0 0.00 0.00 0.00 96 1013.2
20260510081629 55 128 2.0 2.0 0.00 0.00 0.00 95 1013.0
20260510081126 55 153 2.0 2.0 0.00 0.00 0.00 95 1013.2
20260510080625 55 145 2.0 3.0 0.00 0.00 0.00 95 1012.9
20260510080122 56 151 2.0 3.0 0.00 0.00 0.00 95 1013.2
20260510075619 56 154 1.0 2.0 0.00 0.00 0.00 96 1013.1
20260510075116 56 137 1.0 2.0 0.00 0.00 0.00 96 1013.2
20260510074613 56 125 1.0 2.0 0.00 0.00 0.00 95 1012.8
20260510074109 56 170 2.0 2.0 0.00 0.00 0.00 95 1013.0
20260510073559 57 160 2.0 3.0 0.00 0.00 0.00 95 1012.8
20260510073057 57 160 2.0 2.0 0.00 0.00 0.00 95 1013.0
20260510072553 57 144 2.0 2.0 0.00 0.00 0.00 95 1012.9
20260510072049 57 170 2.0 2.0 0.00 0.00 0.00 94 1013.0
20260510071545 57 159 2.0 2.0 0.00 0.00 0.00 94 1012.8
20260510071044 57 164 2.0 3.0 0.00 0.00 0.00 94 1012.8
20260510070540 57 158 2.0 3.0 0.00 0.00 0.00 94 1013.0
20260510070037 58 149 2.0 3.0 0.00 0.00 0.00 93 1012.7
20260510065533 58 150 2.0 3.0 0.00 0.00 0.00 93 1012.7
20260510065029 58 150 2.0 2.0 0.00 0.00 0.00 92 1013.0
20260510064526 58 134 1.0 2.0 0.00 0.00 0.00 92 1012.7
20260510064023 59 139 2.0 2.0 0.00 0.00 0.00 92 1013.0
20260510063520 59 136 1.0 2.0 0.00 0.00 0.00 92 1012.9
20260510063017 59 155 2.0 2.0 0.00 0.00 0.00 91 1012.7
20260510062512 59 144 2.0 2.0 0.00 0.00 0.00 91 1012.9
20260510062008 59 144 2.0 2.0 0.00 0.00 0.00 91 1012.8
20260510061505 60 154 2.0 2.0 0.00 0.00 0.00 91 1012.9
20260510061001 60 161 2.0 2.0 0.00 0.00 0.00 91 1012.9
20260510060458 60 150 2.0 2.0 0.00 0.00 0.00 90 1012.9
20260510055954 60 141 2.0 2.0 0.00 0.00 0.00 91 1012.8
20260510055450 60 154 2.0 2.0 0.00 0.00 0.00 91 1012.7
20260510054948 60 158 2.0 2.0 0.00 0.00 0.00 90 1012.7
20260510054443 60 160 2.0 2.0 0.00 0.00 0.00 90 1012.9
20260510053938 60 158 2.0 2.0 0.00 0.00 0.00 89 1012.9
20260510053434 60 151 2.0 2.0 0.00 0.00 0.00 88 1012.9
20260510052931 60 142 2.0 2.0 0.00 0.00 0.00 88 1012.9
20260510052426 61 158 2.0 2.0 0.00 0.00 0.00 88 1012.8
20260510051923 61 150 2.0 2.0 0.00 0.00 0.00 87 1013.0
20260510051419 61 147 2.0 2.0 0.00 0.00 0.00 87 1012.9
20260510050916 61 149 2.0 2.0 0.00 0.00 0.00 87 1012.9
20260510050413 61 156 2.0 2.0 0.00 0.00 0.00 86 1012.9
20260510045910 61 160 2.0 2.0 0.00 0.00 0.00 86 1012.9
20260510045407 61 161 2.0 2.0 0.00 0.00 0.00 85 1012.9
20260510044904 61 149 2.0 2.0 0.00 0.00 0.00 85 1012.9
20260510044400 61 154 2.0 2.0 0.00 0.00 0.00 84 1012.9
20260510043857 61 143 2.0 2.0 0.00 0.00 0.00 84 1013.0
20260510043353 61 159 2.0 2.0 0.00 0.00 0.00 84 1012.7
20260510042851 61 148 2.0 2.0 0.00 0.00 0.00 84 1012.9
20260510042346 61 166 2.0 2.0 0.00 0.00 0.00 84 1012.9
20260510041843 61 159 2.0 2.0 0.00 0.00 0.00 83 1012.9
20260510041340 61 148 2.0 2.0 0.00 0.00 0.00 83 1012.5
20260510040838 61 156 2.0 2.0 0.00 0.00 0.00 83 1012.9
20260510040334 61 151 2.0 2.0 0.00 0.00 0.00 83 1012.6
20260510035829 61 167 2.0 2.0 0.00 0.00 0.00 82 1012.6
20260510035326 62 152 2.0 2.0 0.00 0.00 0.00 82 1012.4
20260510034822 62 155 2.0 2.0 0.00 0.00 0.00 81 1012.6
20260510034320 62 166 2.0 2.0 0.00 0.00 0.00 81 1012.6
20260510033816 62 148 2.0 2.0 0.00 0.00 0.00 80 1012.4
20260510033313 62 155 2.0 2.0 0.00 0.00 0.00 80 1012.4
20260510032810 63 156 2.0 2.0 0.00 0.00 0.00 79 1012.6
20260510032306 63 146 2.0 2.0 0.00 0.00 0.00 79 1012.4
20260510031801 63 153 2.0 2.0 0.00 0.00 0.00 78 1012.3
20260510031257 63 158 2.0 2.0 0.00 0.00 0.00 78 1012.3
20260510030751 63 159 2.0 3.0 0.00 0.00 0.00 79 1012.4
20260510030248 63 158 2.0 2.0 0.00 0.00 0.00 79 1012.5
20260510025746 63 155 2.0 2.0 0.00 0.00 0.00 79 1012.3
20260510025244 62 151 2.0 2.0 0.00 0.00 0.00 79 1012.4
20260510024740 62 159 2.0 2.0 0.00 0.00 0.00 79 1012.3
20260510024236 62 156 2.0 3.0 0.00 0.00 0.00 79 1012.1
20260510023732 62 147 2.0 2.0 0.00 0.00 0.00 79 1012.2
20260510023229 62 149 2.0 2.0 0.00 0.00 0.00 79 1012.4
20260510022725 62 149 2.0 2.0 0.00 0.00 0.00 79 1012.3
20260510022220 62 154 2.0 2.0 0.00 0.00 0.00 78 1011.9
20260510021715 63 153 2.0 2.0 0.00 0.00 0.00 79 1012.0
20260510021213 62 153 2.0 2.0 0.00 0.00 0.00 79 1011.9
20260510020707 62 154 2.0 2.0 0.00 0.00 0.00 79 1011.7
20260510020202 62 147 2.0 2.0 0.00 0.00 0.00 78 1011.8
20260510015658 63 142 1.0 2.0 0.00 0.00 0.00 78 1011.7
20260510015155 63 151 2.0 2.0 0.00 0.00 0.00 78 1011.7
20260510014650 63 153 2.0 2.0 0.00 0.00 0.00 78 1011.5
20260510014148 63 162 2.0 2.0 0.00 0.00 0.00 77 1011.5
20260510013643 63 155 2.0 2.0 0.00 0.00 0.00 76 1011.6
20260510013139 64 157 2.0 2.0 0.00 0.00 0.00 76 1011.6
20260510012638 64 155 2.0 2.0 0.00 0.00 0.00 77 1011.3
20260510012134 64 161 2.0 2.0 0.00 0.00 0.00 75 1011.2
20260510011629 64 162 2.0 3.0 0.00 0.00 0.00 76 1011.4
20260510011125 65 160 2.0 2.0 0.00 0.00 0.00 75 1011.3
20260510010621 65 156 2.0 2.0 0.00 0.00 0.00 73 1011.3
20260510010119 65 159 2.0 2.0 0.00 0.00 0.00 72 1011.1
20260510005614 65 158 2.0 2.0 0.00 0.00 0.00 70 1011.2
20260510005111 66 155 2.0 2.0 0.00 0.00 0.00 70 1010.8
20260510004609 66 157 2.0 2.0 0.00 0.00 0.00 70 1010.9
20260510004107 66 158 2.0 2.0 0.00 0.00 0.00 69 1010.9
20260510003604 67 153 2.0 2.0 0.00 0.00 0.00 70 1010.7
20260510003100 67 158 2.0 2.0 0.00 0.00 0.00 68 1010.9
20260510002554 68 148 2.0 2.0 0.00 0.00 0.00 70 1010.8
20260510002051 68 151 1.0 2.0 0.00 0.00 0.00 68 1010.6
20260510001548 69 163 2.0 2.0 0.00 0.00 0.00 65 1010.7
20260510001048 69 161 2.0 2.0 0.00 0.00 0.00 64 1010.7
20260510000542 70 153 2.0 2.0 0.00 0.00 0.00 63 1010.6
20260510000039 70 159 2.0 2.0 0.00 0.00 0.00 63 1010.6
20260509235536 71 161 2.0 2.0 0.00 0.00 0.00 64 1010.4
20260509235033 71 161 1.0 2.0 0.00 0.00 0.00 60 1010.2
20260509234529 72 153 1.0 2.0 0.00 0.00 0.00 59 1010.1
20260509234027 72 173 1.0 2.0 0.00 0.00 0.00 54 1010.2
20260509233524 73 183 1.0 2.0 0.00 0.00 0.00 54 1010.4
20260509233021 73 164 2.0 2.0 0.00 0.00 0.00 53 1010.2
20260509232518 74 169 2.0 2.0 0.00 0.00 0.00 51 1010.1
20260509232015 74 170 2.0 2.0 0.00 0.00 0.00 50 1010.5
20260509231511 74 175 2.0 2.0 0.00 0.00 0.00 50 1010.1
20260509231009 74 167 1.0 2.0 0.00 0.00 0.00 51 1010.3
20260509230505 75 163 2.0 2.0 0.00 0.00 0.00 50 1010.4
20260509230002 75 177 2.0 3.0 0.00 0.00 0.00 50 1010.2
20260509225458 75 165 2.0 2.0 0.00 0.00 0.00 49 1010.2
20260509224953 75 175 1.0 3.0 0.00 0.00 0.00 49 1010.0
20260509224449 75 186 1.0 2.0 0.00 0.00 0.00 49 1010.0
20260509223946 75 148 2.0 3.0 0.00 0.00 0.00 48 1010.1
20260509223443 76 167 1.0 3.0 0.00 0.00 0.00 48 1010.2
20260509222940 76 176 2.0 3.0 0.00 0.00 0.00 49 1010.2
20260509222435 76 173 1.0 3.0 0.00 0.00 0.00 49 1010.2
20260509221932 76 185 2.0 3.0 0.00 0.00 0.00 48 1010.2
20260509221429 75 159 0.0 2.0 0.00 0.00 0.00 49 1010.2
20260509220924 75 168 2.0 2.0 0.00 0.00 0.00 49 1010.0
20260509220420 75 161 2.0 2.0 0.00 0.00 0.00 48 1010.3
20260509215917 75 185 1.0 3.0 0.00 0.00 0.00 49 1010.1
20260509215412 76 159 2.0 2.0 0.00 0.00 0.00 49 1010.0
20260509214910 76 142 2.0 2.0 0.00 0.00 0.00 47 1009.8
20260509214407 77 195 2.0 3.0 0.00 0.00 0.00 48 1009.8
20260509213904 75 166 1.0 2.0 0.00 0.00 0.00 48 1009.8